CZ-3B R/B, 44867

Orbit data source: Space-Track

CZ-3B R/B, 44867 is space debris originally from a launch on Mon, 16 Dec 2019 UTC launched from the Xichang Space Center, China (XSC). Debris objects in space refer to the collection of defunct objects orbiting the Earth. Examples of debris include non-operational satellites, rocket bodies, and fragments generated from explosions, collisions, or faulty payload assembly.

Loading next visibility...
Identifier
44867, 2019-090D
Orbit
Active
Last TLE update
15 hours ago
Origin
Manufacturer
CALT
Mission
Spacecraft
Bus & Motor
CZ-3A STAGE 3, Unknown motor
Mass
~2,800 kg wet, ~2,800 kg dry
Launch date (UTC)
2019-12-16 (5 years ago)
Launch vehicle
Unknown
Launch site
Xichang Space Center, China (XSC)
Object type
Payload
Rocket body
Debris
Shape & HBR
Cyl + 1 Nozzle, 12.38 m
Radar Cross Section
32.704 m², Large (>1 m²)

Expand to show TLE details & history

TLE from 15 hours ago
0 CZ-3B R/B
1 44867U 19090D   25114.99872911  .01015278  33603-6  74915-3 0  9991
2 44867  54.9526   9.4394 4274067 132.8313 272.1524  7.14793262 93536
Epoch: 2025-04-24T23:58Z
Definitive object data (Epoch: 2025-04-24T23:58:10.195Z)
Latitude
-0.00001°
Longitude
156.6348°
Altitude
6,730.965 km
Speed
5.08 km/s
True Right ascension
00h 37m 45s
True Declination
0° 00' 00"
Sunlit
Object was in daylight at TLE epoch
Visualization TLE readout
Latitude
-55.02734°
Longitude
65.62071°
Altitude
7,119.636 km
Speed
4.905 km/s
Apparent Right ascension
15h 57m 38s
Apparent Declination
-66° 44' 50"
Sunlit
Object is in daylight
Visualization observer readout
Local Sidereal Time
22:19:51
Azimuth
210.015° SW
Elevation
-38.232°
Doppler factor
1
Orbital elements
Apogee altitude
9,870.932 km
Perigee altitude
140.053 km
Semi-major axis
11,383.629 km
Eccentricity
0.4274067
Inclination
54.9526°
RAAN
9.4394°
Arg. of periapsis
132.8313°
True anomaly
227.24417°
Mean anomaly
272.1524°
Eccentric anomaly
249.25195°
Mean motion
1.78699 °/min
BSTAR
0.00074915
Orbital period
201.46 mins
Loading maneuver chart data...
Loading SW <> Apogee altitude chart data...
Loading historical data...
Loading historical data...
Loading historical data...
Loading historical data...
Loading historical data...
Loading historical data...
Loading historical data...
Other satellites on launch #90 in the year 2019 (2019-12-16 UTC)

CZ-3B R/B Visibility forecast

Observer location: undefined°, undefined°

Span
Click to sort rows by Start time (UTC) header in descending order
Start Az.
Max El. time (UTC)
Max El. Az.
Max El.
End time (UTC)
End Az.
48 mins2025-04-25 16:26:47.909Z177.173° S2025-04-25 17:02:47.909Z126.939° SE30.061°2025-04-25 17:14:47.909Z69.73° E
32 mins2025-04-25 20:10:47.909Z236.431° WSW2025-04-25 20:36:47.909Z326.627° NNW41.848°2025-04-25 20:42:47.909Z39.824° NE
|